Wind_Speed
27 27 28 28 28 27 27 27 27 27 27 26 26 26 25 25 25 24 23 23 23 22 21 20 20 19 19 18 18 17 17 16 16 15 15 16 16 16 16 17 18 19 20 20 21 22 22 22 22 22 22 21 20 20 19 19 19 20 20 20 20 20 20 20 20 20 20 20 20
28 28 28 28 28 28 28 28 28 28 28 27 27 27 26 26 25 25 24 24 23 23 22 21 21 20 20 20 19 19 18 18 17 16 16 16 15 15 15 15 16 16 17 18 19 20 21 22 23 23 23 22 21 21 20 20 20 20 21 21 21 21 21 21 20 19 19 19 20
27 28 28 28 28 29 29 28 28 28 28 28 27 27 27 26 26 26 25 25 24 23 23 22 21 21 21 21 21 20 20 19 18 18 17 17 16 16 16 15 15 15 16 16 17 18 19 20 21 23 23 23 23 22 21 21 20 21 21 21 21 21 21 21 20 19 19 19 19
27 27 28 28 28 28 28 28 28 28 28 28 28 27 27 27 27 26 26 25 24 24 23 22 22 22 22 22 22 21 21 20 20 19 18 18 17 17 16 16 16 16 15 16 16 17 17 18 20 21 22 23 23 23 22 22 21 22 22 22 21 21 21 21 20 19 19 19 19
26 27 27 27 27 27 28 28 28 28 28 28 28 28 28 28 27 27 26 26 25 24 23 23 23 23 23 23 22 22 21 21 20 20 19 18 18 17 17 17 17 16 16 16 16 16 16 17 18 19 20 21 22 23 23 22 22 23 23 22 22 22 22 21 20 20 19 19 19
25 25 25 25 26 26 26 26 27 27 27 28 28 28 28 28 28 27 27 26 25 25 24 24 24 24 24 23 23 23 22 22 21 20 20 19 18 18 18 18 17 17 17 16 16 16 16 17 17 18 19 20 21 22 22 23 23 24 24 24 23 23 23 22 21 21 20 20 21
23 23 23 23 23 24 24 24 25 25 26 26 27 28 28 28 27 27 27 26 26 26 26 25 25 25 25 24 24 23 23 22 22 21 20 20 19 18 18 18 18 17 17 17 17 17 17 17 17 18 18 19 20 20 21 22 23 24 24 24 24 24 24 23 23 22 22 22 22
21 21 21 21 21 21 22 22 22 23 24 25 25 26 26 26 26 26 26 26 26 26 26 26 25 25 25 25 24 24 23 23 22 22 21 20 20 19 19 18 18 18 18 17 17 17 17 17 18 18 18 18 18 19 20 21 22 24 24 25 24 24 24 24 24 24 24 24 23
20 20 19 19 19 19 19 19 20 21 22 23 23 23 24 24 24 24 25 25 25 25 25 25 25 25 25 24 24 24 23 23 22 22 21 21 20 20 19 19 18 18 18 18 18 18 18 18 18 18 18 17 18 18 19 20 21 23 24 24 25 25 25 25 25 25 26 26 25
20 19 19 18 18 18 18 18 19 19 20 21 21 22 22 22 22 23 23 24 24 25 25 25 24 24 24 24 24 24 23 23 23 22 22 21 21 20 20 19 19 18 18 18 18 18 18 19 18 18 17 17 17 17 18 19 20 21 23 24 24 25 25 25 25 25 26 27 27
21 20 20 19 19 18 18 19 19 19 20 21 21 21 21 22 22 22 23 23 24 24 24 24 24 24 24 24 24 24 24 23 23 23 22 22 21 20 20 19 19 19 18 18 18 18 19 19 19 18 17 17 17 17 17 18 19 20 21 22 23 24 24 24 24 24 25 26 26
23 22 22 21 21 20 20 20 20 20 21 21 21 21 21 22 22 22 23 23 24 24 24 24 24 24 24 24 24 24 23 23 23 23 23 22 21 21 20 20 19 19 19 18 18 19 19 19 19 18 18 17 17 17 17 18 19 20 21 21 22 22 22 22 22 22 23 25 26
24 24 24 23 23 23 22 22 22 22 22 22 22 22 22 22 22 23 23 24 24 24 24 24 24 25 25 24 24 24 23 23 23 23 23 22 22 21 20 20 19 19 19 19 19 19 19 19 19 18 18 18 17 17 17 18 18 19 20 21 21 21 21 22 22 22 23 25 27
26 26 25 25 25 25 25 25 24 24 24 24 23 24 24 24 24 24 24 25 25 25 25 25 25 25 25 24 24 24 23 23 23 23 23 22 21 21 20 20 19 19 19 19 19 19 19 19 18 18 18 18 17 17 17 17 18 18 19 20 20 20 21 21 21 22 23 25 26
27 27 27 27 27 27 26 26 26 26 26 26 25 25 25 26 26 25 26 26 26 26 27 27 27 26 25 25 24 24 24 23 23 23 23 22 21 20 20 19 19 19 19 19 19 19 19 19 18 18 18 18 18 17 16 16 17 17 18 18 18 18 19 20 19 20 21 23 24
27 27 27 27 28 28 28 28 27 27 27 27 27 27 27 28 27 27 28 28 28 28 28 28 28 27 26 25 25 24 24 24 23 23 22 21 20 20 19 19 19 19 19 19 19 19 19 18 18 18 18 18 18 17 16 16 16 16 17 17 17 17 17 17 17 18 19 21 22
28 28 28 28 29 29 29 29 29 29 29 29 29 29 29 30 30 30 30 30 30 30 30 29 28 28 27 26 25 24 24 24 23 22 21 20 20 19 19 19 19 19 19 19 20 19 19 18 18 18 18 18 18 17 16 16 16 16 17 17 16 16 16 15 15 16 18 19 20
29 29 29 29 30 30 30 30 30 30 30 30 30 31 31 31 32 32 32 31 32 31 31 30 29 28 28 27 26 25 24 24 23 22 21 20 19 19 19 19 19 19 19 19 20 19 19 18 18 18 18 18 18 17 16 16 16 16 17 17 17 16 15 14 15 16 17 18 18
29 29 30 30 31 31 31 31 31 31 32 32 32 32 32 33 33 33 33 32 32 32 31 30 30 29 28 27 26 25 24 24 23 22 21 20 19 19 19 18 18 19 19 19 19 19 19 19 18 18 18 18 17 17 16 16 16 17 17 17 16 15 14 15 15 16 17 17 16
27 28 29 29 30 30 31 31 32 32 32 32 32 33 33 33 33 33 33 32 32 31 31 30 30 29 28 27 26 25 24 23 22 21 20 20 19 19 18 18 18 19 19 19 20 19 19 19 18 18 18 18 18 17 16 16 17 17 17 16 15 14 14 15 16 16 16 16 16
25 26 27 27 28 29 29 30 30 31 31 31 32 32 32 32 32 32 31 31 30 30 30 30 29 29 28 27 26 25 23 22 22 21 20 20 19 18 18 18 18 19 19 19 19 19 19 19 18 18 18 18 18 17 17 17 18 18 17 16 15 14 15 15 16 16 16 16 17
23 24 25 25 26 27 27 27 28 28 29 29 29 30 30 30 30 29 29 28 28 28 28 28 28 27 26 26 25 23 22 22 21 21 20 20 19 18 18 18 18 18 18 18 18 18 18 18 18 17 17 17 17 17 17 18 18 18 17 16 15 15 15 15 16 17 16 16 18
23 23 24 24 25 25 26 26 26 27 27 27 28 28 28 28 27 27 27 26 26 26 26 26 26 25 24 23 23 22 21 21 21 20 20 19 19 18 18 18 18 18 18 18 18 17 18 18 18 17 17 16 16 16 17 17 18 18 17 17 16 15 15 15 17 17 17 17 19
23 23 24 24 25 25 25 25 25 26 26 26 26 26 26 26 26 26 25 25 25 26 26 25 25 24 23 22 21 20 20 20 20 20 19 19 19 18 18 18 18 18 17 17 17 16 16 16 16 16 16 15 15 15 16 16 17 17 17 17 17 16 15 16 17 18 17 18 19
23 23 24 24 24 25 25 25 25 25 25 25 25 25 25 25 25 25 25 25 25 26 25 25 24 23 22 21 20 19 19 19 19 19 19 18 18 18 18 18 17 17 17 16 15 15 15 15 15 15 16 16 16 16 16 16 17 17 17 18 18 17 16 17 18 18 18 19 20
22 23 23 24 24 25 25 25 25 25 25 24 24 24 24 24 24 24 24 25 25 25 25 24 24 23 21 20 19 18 18 17 17 17 17 18 18 18 18 17 17 16 16 15 14 13 13 14 15 16 17 18 19 20 19 19 18 18 18 19 19 18 17 18 19 19 19 19 19
20 21 22 23 23 24 24 24 24 24 24 24 24 24 24 23 23 23 23 24 24 23 23 23 22 22 21 19 18 17 17 16 15 16 16 16 17 17 17 16 16 15 14 13 13 12 12 13 14 15 16 16 17 18 19 19 19 19 20 21 21 20 18 18 19 19 19 18 18
17 18 19 21 22 23 23 23 24 24 24 24 23 23 22 22 22 21 22 22 22 21 21 21 21 20 19 18 17 16 15 14 14 14 14 15 16 16 16 15 15 14 13 12 12 11 11 12 12 13 13 13 14 15 16 17 18 19 20 21 22 21 18 18 19 19 19 18 18
16 17 18 19 20 20 21 22 22 23 23 23 22 22 21 21 20 20 19 19 20 20 20 19 19 19 18 17 16 15 14 13 13 13 14 14 15 15 15 14 14 13 13 12 11 11 11 11 12 12 13 13 14 15 16 17 18 18 19 19 20 20 19 18 20 20 19 19 19
16 17 17 18 18 19 19 20 20 21 21 21 21 21 20 19 19 18 18 18 18 18 18 17 17 17 16 15 14 14 13 13 13 13 13 14 14 14 14 13 13 13 12 12 11 11 10 11 12 13 14 15 15 15 16 17 17 18 18 18 18 18 18 19 20 21 20 19 19
17 18 18 18 18 18 18 18 18 19 19 20 20 19 19 18 17 16 16 16 16 16 16 16 16 15 14 14 13 13 12 12 12 12 12 13 13 13 12 12 12 11 11 11 10 10 11 11 12 14 15 16 16 16 16 16 17 17 17 17 17 17 17 18 20 21 21 20 20
18 18 19 19 19 18 17 17 17 17 17 17 18 17 17 16 15 15 14 14 14 15 15 14 14 13 12 12 11 11 11 11 11 11 11 11 11 11 11 11 11 10 10 10 11 11 11 12 13 15 16 17 17 17 16 16 16 16 16 16 16 17 17 18 19 21 21 21 21
18 19 19 20 20 19 18 17 16 15 15 15 15 15 15 14 14 13 13 13 13 13 13 12 12 11 10 10 10 10 10 11 11 11 11 11 12 12 12 12 11 11 11 12 12 13 14 15 16 18 19 19 19 18 17 16 15 15 15 16 16 17 17 18 19 20 21 22 21
18 19 19 20 20 20 18 17 15 14 13 13 13 13 13 12 12 12 12 12 11 11 11 10 9 9 9 9 9 10 10 10 11 11 12 12 13 13 14 13 13 13 14 15 15 16 17 18 20 21 23 23 22 21 19 17 16 15 15 16 17 17 18 19 20 20 21 21 21
18 18 19 19 20 20 19 17 15 13 12 11 11 11 11 11 10 10 10 10 10 9 9 8 8 7 8 8 8 8 8 9 9 10 11 13 13 14 14 15 15 16 17 18 19 19 19 20 21 23 24 25 25 24 22 19 17 16 15 16 17 18 20 20 21 21 21 21 21
17 17 18 18 19 19 19 17 15 13 11 9 9 9 9 9 9 8 8 8 7 7 6 6 5 6 6 6 7 7 8 8 9 10 11 12 12 12 13 14 15 17 18 19 20 21 21 21 22 23 24 25 26 26 25 22 19 17 16 16 18 19 19 20 21 21 22 22 22
15 15 16 17 17 18 17 17 15 12 10 8 7 6 6 6 6 6 6 5 5 4 3 3 4 4 4 5 6 7 8 9 10 11 12 12 12 11 11 12 14 15 16 17 19 21 22 23 23 23 24 25 26 27 27 25 22 19 17 17 18 20 20 21 22 22 23 22 22
13 14 14 15 15 15 15 15 13 11 9 6 5 4 4 4 4 3 3 3 2 2 2 2 3 3 4 5 6 7 8 8 10 11 11 12 12 12 12 13 13 13 13 14 15 18 20 21 22 23 23 24 25 27 28 28 25 22 19 19 20 21 22 22 23 23 23 23 23
12 13 13 13 13 13 13 12 12 10 8 6 4 4 3 3 3 2 2 2 2 2 2 2 3 4 5 6 7 7 8 8 9 10 10 11 11 12 12 13 13 13 12 12 13 14 16 18 20 21 23 24 25 26 28 29 27 25 22 21 21 22 22 23 23 23 23 23 23
12 13 12 12 11 11 10 10 9 8 7 6 5 4 3 3 3 3 2 2 2 2 3 3 4 5 6 7 8 8 9 9 10 10 11 11 12 12 12 12 12 12 12 12 12 13 14 16 19 20 22 23 24 25 26 27 27 25 24 22 22 22 23 22 22 23 23 23 23
12 12 11 11 10 9 8 7 7 7 6 6 5 5 4 4 4 4 4 3 2 3 3 4 5 6 7 8 9 10 11 12 12 13 13 14 14 14 13 13 13 13 13 13 13 14 15 17 19 21 22 23 23 24 24 24 25 25 24 24 23 23 23 22 21 22 23 24 24
Wind_Direction
258 260 262 265 267 269 271 273 275 276 276 275 274 274 275 275 275 275 276 276 276 277 278 279 280 281 282 283 283 284 284 284 283 283 282 282 281 281 280 279 278 277 275 274 272 270 268 266 265 263 262 261 261 260 260 260 260 260 260 259 259 260 261 262 264 266 267 268 268
259 261 263 265 266 268 270 271 273 273 274 274 275 275 276 276 275 276 276 277 278 279 280 281 282 284 286 287 289 289 290 289 289 288 287 286 285 284 283 282 280 279 277 276 274 272 269 268 266 264 263 262 261 260 260 260 260 260 260 259 259 259 260 262 264 267 269 270 270
260 262 263 264 265 266 267 268 269 270 272 273 273 274 275 276 276 277 277 278 279 280 281 282 284 287 289 291 293 294 295 295 295 294 292 291 289 288 287 285 283 281 280 278 276 274 271 269 267 266 264 263 261 260 259 259 260 260 261 261 260 260 260 261 263 266 268 269 269
261 262 262 263 264 265 266 267 268 270 272 273 273 274 275 275 276 277 278 278 279 280 281 284 286 289 291 293 295 296 297 298 298 297 296 295 294 292 290 288 286 284 282 280 278 276 274 271 269 266 265 263 261 260 259 258 259 260 260 261 261 260 259 260 261 262 263 264 264
262 263 264 264 265 266 267 268 268 270 271 273 274 274 275 275 276 277 277 278 279 281 283 286 288 290 292 293 295 296 297 298 298 298 298 298 297 295 293 291 289 287 285 283 281 278 276 273 270 267 265 263 261 260 259 258 258 258 259 260 260 260 259 259 258 258 259 259 259
264 265 266 266 267 268 268 269 269 270 271 272 273 273 274 275 276 277 279 280 282 284 286 287 289 291 292 294 295 296 296 297 297 298 298 298 298 297 295 293 291 289 287 284 282 280 278 275 272 269 267 264 262 260 259 258 257 257 257 258 259 260 260 260 259 259 258 258 258
266 267 268 269 269 270 270 270 270 271 271 272 271 272 273 275 277 279 281 283 284 286 287 288 290 291 292 294 295 295 296 296 296 297 297 297 297 296 295 294 292 290 287 285 283 281 279 277 274 272 269 266 265 262 260 258 257 257 257 258 259 259 260 261 262 262 261 260 260
269 270 271 272 272 273 273 274 274 273 273 273 272 273 275 277 279 282 284 285 286 287 288 289 290 292 293 294 295 295 296 296 296 296 297 296 296 296 295 293 292 290 288 286 283 281 279 278 276 274 272 270 267 264 261 259 258 257 257 257 258 259 260 261 263 264 264 263 263
271 272 274 275 276 277 278 279 279 278 277 277 277 279 280 282 283 284 285 286 288 289 289 290 291 293 294 294 295 296 296 297 297 297 296 296 295 295 294 293 291 289 287 285 283 282 280 278 276 274 273 271 269 266 264 262 260 259 258 258 258 259 260 262 263 265 266 266 265
273 275 277 278 279 281 282 283 284 283 282 282 282 284 285 285 286 286 287 288 289 289 289 291 292 293 294 295 296 296 297 297 297 297 296 295 294 294 293 292 290 289 287 285 283 281 279 278 276 275 273 271 270 267 265 263 262 261 260 259 259 260 261 262 264 266 267 268 268
275 277 279 280 282 284 285 285 285 285 284 284 284 285 286 286 287 288 289 289 290 290 291 292 294 294 295 295 296 297 297 297 297 297 296 295 295 293 292 291 289 288 286 284 282 280 278 276 275 274 272 271 269 267 265 263 262 262 261 261 260 260 261 262 264 266 268 269 269
277 279 280 282 284 285 285 285 285 285 284 284 284 285 286 286 287 289 290 290 290 291 293 294 294 295 295 296 296 297 297 297 297 297 296 296 295 293 291 290 288 286 284 282 280 278 276 275 274 273 271 270 268 266 265 263 263 262 262 261 261 261 261 262 263 266 268 270 270
276 278 280 281 283 284 284 284 284 284 283 282 283 284 285 287 288 289 290 291 292 293 294 294 295 294 295 296 297 297 297 297 297 297 296 296 294 293 291 288 286 284 282 280 278 277 275 274 273 273 271 270 268 266 265 264 263 263 263 262 262 262 262 262 264 266 269 271 271
275 276 278 279 280 281 281 281 282 281 281 281 282 283 285 287 288 289 290 291 292 293 294 294 294 294 295 296 297 297 297 297 297 296 296 295 294 293 291 288 286 283 281 279 277 276 275 274 273 273 272 270 268 266 265 264 263 263 263 264 264 264 264 265 266 268 270 271 273
274 275 276 277 278 278 279 279 279 279 279 280 281 283 285 287 288 289 289 291 292 293 293 292 292 293 294 295 296 296 296 296 296 295 295 295 294 293 291 288 286 283 281 279 277 277 276 275 274 273 273 271 270 268 265 264 263 263 263 264 265 266 267 268 269 270 271 273 275
272 273 274 275 275 276 276 277 277 278 278 279 281 283 285 286 287 288 289 290 290 291 291 291 291 293 293 294 294 294 294 294 294 294 294 294 294 293 291 289 286 284 282 280 279 278 277 277 276 275 274 273 272 270 267 265 264 263 264 264 265 267 268 269 269 270 272 275 276
270 271 272 273 273 274 274 275 276 277 277 279 280 282 284 285 286 287 288 288 289 289 289 290 290 291 291 292 292 292 292 293 293 293 293 293 293 292 291 289 287 284 282 281 279 279 278 278 277 276 275 275 274 272 270 267 265 265 265 266 267 268 268 266 264 265 269 273 273
269 269 270 271 271 272 273 273 274 275 276 277 279 281 282 284 285 285 286 287 287 287 287 288 289 289 289 290 290 291 291 291 292 292 293 293 293 292 290 288 286 284 282 280 279 279 278 278 278 277 277 276 275 274 271 269 267 267 268 269 271 271 267 262 259 260 264 265 267
268 268 269 269 270 270 271 272 273 274 275 276 278 279 280 281 282 283 284 284 285 285 286 286 287 287 287 287 288 288 289 289 290 291 292 292 292 291 289 288 286 283 281 280 279 279 279 278 278 278 277 277 276 274 272 270 269 270 271 272 273 270 264 259 258 258 258 258 264
268 268 269 269 270 270 271 272 272 273 274 276 276 277 278 279 280 280 281 281 282 283 284 284 284 284 285 285 286 286 287 288 288 289 290 290 290 289 288 286 285 282 281 279 279 278 278 278 278 278 278 278 276 275 273 272 272 272 274 274 272 267 261 259 258 256 254 255 265
268 269 269 270 270 271 271 272 272 273 274 275 275 276 276 277 278 278 278 279 280 281 281 281 281 281 282 282 283 284 285 286 286 287 287 287 287 286 285 284 282 280 279 278 277 277 277 278 278 278 278 278 277 276 274 273 274 274 274 273 268 263 259 258 255 251 250 255 267
268 268 269 269 270 270 271 271 272 273 273 274 274 274 275 275 275 276 276 277 277 277 277 277 278 279 280 280 281 282 283 283 283 283 284 284 284 283 282 280 279 278 276 276 276 276 277 277 277 278 278 279 278 277 275 274 274 274 274 271 266 261 258 255 250 247 249 257 267
267 267 268 268 268 269 270 271 271 271 272 272 273 273 274 274 274 275 274 274 273 273 273 274 275 276 277 278 279 280 280 280 280 280 281 281 281 280 279 277 276 275 274 275 275 276 277 278 278 279 279 280 279 277 274 272 273 274 273 270 266 262 258 251 246 245 249 258 266
267 267 268 268 269 269 270 270 270 271 271 271 272 273 273 273 273 273 272 272 271 271 271 271 272 273 275 276 276 276 276 277 277 278 278 278 278 278 277 275 274 274 274 275 275 276 278 279 280 281 281 280 279 276 273 271 270 271 270 268 267 264 257 247 243 243 250 259 264
268 268 268 269 269 269 269 270 270 270 271 271 272 272 272 272 272 272 271 271 270 270 270 270 270 270 271 272 272 273 273 274 274 275 275 275 275 275 274 274 274 274 274 275 276 277 278 279 280 280 278 275 273 271 270 270 269 267 266 266 268 267 259 247 241 242 249 258 262
270 269 269 269 269 269 270 270 270 271 271 272 272 272 272 272 272 272 271 271 270 269 269 268 268 268 268 268 268 269 270 271 272 272 273 273 273 273 273 273 274 274 275 276 276 277 277 277 278 278 278 276 275 273 272 272 271 268 266 267 270 268 259 246 240 241 247 256 260
274 273 272 271 271 271 271 271 271 272 272 272 272 273 273 273 273 273 272 271 270 269 268 266 265 265 265 265 265 266 267 268 269 270 270 271 271 271 272 272 273 274 275 277 277 277 276 277 278 280 282 284 283 281 279 277 275 272 271 273 274 271 260 245 238 239 245 251 254
281 278 276 275 274 273 273 273 273 273 273 274 274 275 275 275 274 273 272 271 269 267 266 264 263 263 263 262 263 264 265 265 265 266 267 268 269 270 271 272 272 273 274 275 275 275 274 275 277 279 280 280 278 276 275 274 273 273 274 277 278 275 263 246 238 238 242 247 248
288 285 281 279 277 276 275 274 274 274 275 275 275 276 276 276 275 274 273 271 269 266 264 263 262 262 261 262 262 263 262 262 262 263 264 266 267 268 269 271 272 272 272 271 270 269 270 272 274 275 274 272 270 268 266 266 266 268 272 278 282 279 267 249 240 238 241 244 245
293 289 286 283 281 278 277 276 276 275 275 275 275 276 276 276 276 275 274 272 269 267 265 264 262 261 261 262 262 262 261 261 261 262 264 265 266 267 269 271 272 272 269 265 263 263 265 268 272 274 273 271 270 268 267 265 264 265 270 278 283 281 270 254 242 238 239 242 242
296 294 291 289 286 283 281 279 278 277 276 276 276 276 276 277 277 277 275 273 270 267 265 263 262 261 262 262 262 261 261 261 262 263 264 266 268 269 271 272 272 269 265 260 258 259 263 268 272 275 275 274 273 272 271 269 267 268 273 280 284 282 271 257 244 239 238 240 241
298 297 295 294 292 290 287 284 282 280 279 278 278 278 278 278 278 277 275 272 269 266 264 262 262 262 262 262 262 262 263 264 265 266 268 270 272 273 273 272 270 266 261 257 258 261 265 269 272 274 274 274 273 273 273 272 272 273 277 283 285 281 272 258 245 238 236 238 239
299 299 298 297 297 295 293 290 287 285 283 282 281 280 280 280 279 278 275 272 269 267 265 264 264 265 265 266 267 269 270 272 273 274 275 276 276 275 274 272 269 266 263 261 263 267 271 274 275 275 273 271 269 269 270 272 275 278 282 286 286 282 272 259 246 238 234 235 237
300 300 299 299 299 298 297 295 292 290 287 285 284 283 282 282 281 279 276 273 271 269 268 267 267 269 270 272 274 276 278 279 279 279 280 279 278 277 275 273 271 270 270 270 272 275 278 280 280 279 277 274 271 268 268 270 275 280 284 287 288 283 274 261 248 239 233 233 235
300 300 300 300 300 299 299 298 296 294 291 289 287 286 285 283 282 279 276 273 271 270 270 270 271 273 276 277 279 281 283 284 285 285 284 281 279 278 277 278 279 279 279 279 278 278 279 281 283 283 283 281 278 274 270 269 272 278 284 289 290 286 277 264 252 241 234 231 232
301 300 300 299 300 300 300 299 297 296 294 292 290 288 286 284 281 277 275 273 271 270 272 275 279 285 289 291 292 292 293 294 293 291 287 284 282 281 283 286 288 289 289 288 286 282 280 279 281 284 286 288 288 284 277 271 270 275 283 289 292 289 281 269 255 243 235 230 229
303 301 300 300 300 301 301 301 299 298 296 294 291 289 285 280 276 274 272 272 270 271 277 287 296 301 306 308 305 301 298 297 295 294 293 292 292 292 293 293 295 297 299 299 297 293 287 283 283 284 287 291 293 291 285 277 272 273 280 288 291 291 284 273 258 246 237 231 228
307 305 303 302 302 304 305 305 303 300 296 292 287 281 275 269 264 263 265 266 267 274 287 294 295 295 295 297 296 295 294 295 293 294 294 296 296 296 295 295 296 299 303 305 305 301 297 292 288 287 289 292 293 292 288 281 275 274 278 285 289 290 286 276 262 249 239 232 227
312 309 307 306 307 309 311 312 308 302 295 287 276 266 257 250 243 248 256 263 270 277 284 286 283 279 278 279 284 288 291 293 292 291 291 292 293 294 294 295 297 299 303 305 306 305 303 298 294 292 292 293 294 293 290 284 278 275 277 282 287 290 287 278 266 253 241 233 226
315 312 309 309 310 314 317 316 310 302 293 282 270 261 253 246 242 243 249 258 277 287 291 291 290 286 284 285 289 292 294 294 292 289 288 287 289 290 292 294 297 300 304 307 311 312 310 306 301 297 295 295 295 294 291 286 281 277 277 280 286 289 288 281 270 257 244 234 225
319 314 311 309 310 312 314 312 304 296 288 280 272 267 266 263 257 251 251 257 275 291 299 303 304 303 302 300 300 301 301 299 295 292 289 286 284 284 285 287 291 295 299 305 311 314 314 311 306 302 299 297 296 295 292 289 284 279 278 280 285 289 289 285 274 260 246 234 224
Height
1481 1481 1482 1482 1483 1483 1484 1484 1485 1485 1486 1486 1487 1488 1488 1489 1489 1490 1490 1491 1492 1493 1493 1494 1495 1496 1496 1497 1498 1498 1499 1499 1500 1500 1500 1500 1500 1500 1500 1501 1501 1501 1501 1501 1502 1502 1502 1503 1503 1503 1504 1504 1505 1505 1505 1506 1506 1506 1506 1507 1507 1507 1508 1508 1508 1508 1508 1509 1509
1480 1480 1481 1481 1482 1482 1483 1483 1484 1484 1485 1485 1486 1486 1487 1488 1488 1489 1490 1490 1491 1491 1492 1493 1494 1494 1495 1495 1496 1497 1497 1498 1498 1498 1499 1499 1499 1499 1499 1499 1499 1499 1500 1500 1500 1500 1500 1501 1501 1501 1502 1502 1503 1503 1504 1504 1505 1505 1505 1505 1505 1506 1506 1506 1507 1507 1507 1507 1508
1479 1480 1480 1480 1481 1481 1482 1482 1482 1483 1484 1484 1485 1485 1486 1486 1487 1488 1488 1489 1490 1490 1491 1491 1492 1493 1493 1494 1495 1495 1495 1496 1496 1496 1497 1497 1497 1497 1498 1498 1498 1498 1498 1498 1498 1498 1499 1499 1499 1500 1500 1500 1501 1501 1502 1502 1503 1503 1503 1504 1504 1505 1505 1505 1505 1506 1506 1506 1506
1478 1478 1479 1479 1480 1480 1481 1481 1482 1482 1483 1483 1484 1484 1485 1485 1486 1486 1487 1488 1488 1489 1490 1490 1491 1492 1492 1492 1493 1493 1494 1494 1494 1495 1495 1495 1495 1496 1496 1496 1496 1496 1496 1496 1497 1497 1497 1497 1497 1497 1498 1498 1499 1499 1500 1501 1501 1501 1502 1502 1502 1503 1503 1503 1504 1504 1504 1505 1505
1477 1477 1478 1478 1479 1479 1480 1480 1481 1481 1482 1482 1483 1483 1483 1484 1485 1485 1486 1486 1487 1488 1488 1489 1490 1490 1491 1491 1491 1492 1492 1492 1493 1493 1493 1493 1494 1494 1494 1494 1495 1495 1495 1495 1495 1495 1495 1495 1495 1495 1496 1496 1497 1497 1498 1499 1499 1500 1500 1500 1500 1501 1501 1502 1502 1502 1503 1503 1503
1475 1476 1476 1477 1477 1478 1479 1479 1480 1480 1481 1481 1481 1482 1482 1482 1483 1484 1484 1485 1485 1486 1487 1488 1488 1489 1489 1490 1490 1490 1490 1491 1491 1491 1491 1492 1492 1492 1492 1493 1493 1493 1493 1493 1494 1494 1494 1494 1494 1494 1494 1494 1495 1495 1496 1497 1497 1498 1498 1498 1499 1499 1500 1500 1500 1500 1501 1501 1501
1474 1475 1475 1476 1476 1477 1477 1478 1479 1479 1480 1480 1480 1480 1480 1481 1482 1482 1483 1484 1484 1485 1485 1486 1486 1487 1487 1488 1488 1489 1489 1489 1490 1490 1490 1490 1490 1490 1491 1491 1491 1491 1491 1492 1492 1492 1492 1492 1492 1492 1492 1493 1493 1493 1494 1495 1495 1495 1496 1496 1497 1497 1498 1498 1498 1499 1499 1499 1499
1473 1473 1474 1475 1475 1475 1476 1477 1477 1478 1478 1478 1479 1479 1479 1480 1480 1481 1481 1482 1483 1483 1484 1484 1485 1485 1486 1486 1486 1487 1487 1488 1488 1488 1488 1488 1489 1489 1489 1489 1489 1490 1490 1490 1490 1490 1490 1490 1490 1490 1490 1491 1491 1492 1492 1493 1493 1494 1494 1494 1495 1495 1496 1496 1496 1497 1497 1497 1497
1471 1472 1473 1473 1474 1474 1475 1475 1476 1476 1477 1477 1477 1478 1478 1479 1479 1480 1480 1480 1481 1482 1482 1483 1483 1484 1484 1484 1485 1485 1485 1486 1486 1486 1486 1487 1487 1487 1487 1487 1488 1488 1488 1488 1488 1489 1489 1489 1489 1489 1489 1489 1490 1490 1490 1491 1491 1491 1492 1492 1493 1494 1494 1494 1495 1495 1495 1495 1495
1470 1471 1471 1472 1472 1473 1474 1474 1475 1475 1475 1475 1476 1476 1477 1477 1478 1478 1479 1479 1480 1480 1480 1481 1481 1482 1482 1483 1483 1483 1484 1484 1484 1485 1485 1485 1485 1485 1485 1486 1486 1486 1486 1486 1487 1487 1487 1487 1487 1487 1487 1488 1488 1488 1489 1489 1490 1490 1490 1490 1491 1491 1492 1492 1493 1493 1493 1493 1493
1469 1469 1470 1470 1471 1472 1472 1473 1473 1473 1474 1474 1474 1475 1475 1476 1476 1477 1477 1478 1478 1478 1479 1479 1480 1480 1480 1481 1481 1482 1482 1482 1482 1483 1483 1483 1483 1484 1484 1484 1484 1484 1485 1485 1485 1485 1485 1485 1485 1485 1485 1486 1486 1487 1487 1487 1488 1488 1488 1488 1489 1489 1490 1490 1491 1491 1491 1491 1491
1467 1468 1469 1469 1470 1470 1471 1471 1471 1472 1472 1472 1473 1473 1474 1474 1475 1475 1476 1476 1476 1476 1477 1478 1478 1479 1479 1479 1480 1480 1480 1480 1480 1481 1481 1481 1481 1482 1482 1482 1482 1482 1483 1483 1483 1483 1483 1483 1483 1483 1484 1484 1485 1485 1485 1485 1486 1486 1486 1486 1487 1487 1488 1488 1489 1489 1489 1490 1490
1466 1466 1467 1467 1468 1469 1469 1470 1470 1470 1470 1470 1471 1471 1472 1472 1473 1474 1474 1474 1475 1475 1475 1476 1476 1477 1477 1477 1478 1478 1478 1479 1479 1479 1479 1479 1480 1480 1480 1480 1480 1481 1481 1481 1481 1481 1481 1481 1481 1482 1482 1482 1483 1483 1483 1484 1484 1484 1485 1485 1485 1485 1486 1486 1487 1487 1487 1487 1487
1464 1465 1465 1466 1466 1467 1467 1468 1468 1468 1468 1469 1469 1470 1470 1470 1471 1472 1472 1472 1473 1473 1474 1474 1475 1475 1475 1475 1476 1476 1476 1477 1477 1477 1477 1477 1478 1478 1478 1478 1479 1479 1479 1479 1479 1479 1480 1480 1480 1480 1480 1480 1481 1481 1481 1482 1482 1482 1483 1483 1483 1483 1484 1484 1485 1485 1485 1485 1486
1462 1463 1464 1464 1465 1465 1465 1466 1466 1466 1466 1467 1467 1468 1468 1469 1469 1470 1470 1470 1471 1471 1472 1472 1472 1473 1473 1474 1474 1474 1475 1475 1475 1475 1475 1475 1476 1476 1476 1476 1477 1477 1477 1477 1477 1478 1478 1478 1478 1478 1479 1479 1479 1479 1480 1480 1480 1480 1480 1481 1481 1481 1482 1482 1482 1483 1484 1484 1484
1460 1461 1462 1462 1463 1463 1464 1464 1464 1464 1465 1465 1465 1466 1466 1467 1467 1468 1468 1468 1469 1469 1470 1470 1470 1471 1471 1472 1472 1473 1473 1473 1473 1473 1474 1474 1474 1474 1474 1475 1475 1475 1475 1475 1475 1476 1476 1476 1476 1477 1477 1477 1477 1477 1478 1478 1479 1479 1479 1479 1479 1480 1480 1480 1481 1481 1482 1482 1482
1459 1459 1460 1460 1461 1461 1461 1462 1462 1462 1463 1463 1464 1464 1465 1465 1465 1465 1466 1466 1467 1467 1467 1468 1468 1469 1469 1470 1470 1470 1471 1471 1471 1471 1472 1472 1472 1472 1472 1473 1473 1473 1473 1474 1474 1474 1474 1475 1475 1475 1475 1475 1475 1475 1476 1476 1477 1477 1477 1477 1477 1478 1478 1479 1479 1480 1480 1480 1480
1457 1458 1458 1459 1459 1459 1460 1460 1460 1460 1461 1461 1462 1462 1463 1463 1463 1464 1464 1464 1465 1465 1465 1465 1466 1467 1467 1468 1468 1469 1469 1469 1469 1470 1470 1470 1470 1470 1471 1471 1471 1471 1472 1472 1472 1472 1472 1473 1473 1473 1473 1474 1474 1474 1474 1475 1475 1475 1475 1475 1475 1476 1476 1477 1477 1478 1478 1478 1479
1455 1456 1457 1457 1457 1458 1458 1458 1459 1459 1459 1460 1460 1460 1461 1461 1461 1462 1462 1462 1462 1463 1463 1463 1464 1465 1465 1465 1466 1466 1467 1467 1467 1468 1468 1468 1469 1469 1469 1469 1469 1470 1470 1470 1470 1470 1471 1471 1471 1472 1472 1472 1472 1472 1472 1473 1473 1473 1473 1474 1474 1474 1475 1475 1476 1476 1476 1476 1477
1454 1455 1455 1455 1456 1456 1456 1456 1457 1457 1457 1458 1458 1458 1459 1459 1460 1460 1460 1460 1460 1461 1461 1461 1462 1462 1463 1463 1464 1464 1465 1465 1465 1466 1466 1466 1467 1467 1467 1467 1468 1468 1468 1468 1468 1469 1469 1470 1470 1470 1470 1470 1470 1471 1471 1471 1471 1471 1472 1472 1472 1473 1473 1474 1474 1474 1475 1475 1475
1453 1453 1454 1454 1454 1454 1455 1455 1455 1455 1455 1456 1456 1456 1457 1457 1457 1458 1458 1458 1459 1459 1459 1459 1460 1460 1460 1461 1462 1462 1463 1463 1464 1464 1464 1465 1465 1465 1465 1465 1466 1466 1466 1466 1467 1467 1467 1468 1468 1468 1469 1469 1469 1469 1469 1470 1470 1470 1470 1470 1471 1471 1472 1472 1472 1472 1473 1473 1474
1451 1452 1452 1452 1452 1453 1453 1453 1453 1454 1454 1454 1454 1455 1455 1455 1455 1456 1456 1457 1457 1457 1457 1457 1457 1458 1458 1459 1460 1460 1461 1461 1461 1462 1462 1462 1463 1463 1463 1464 1464 1464 1464 1465 1465 1465 1466 1466 1466 1467 1467 1467 1467 1467 1468 1468 1468 1468 1468 1469 1469 1470 1470 1470 1471 1471 1471 1472 1473
1450 1450 1450 1450 1450 1451 1451 1451 1451 1452 1452 1452 1452 1453 1453 1453 1454 1454 1454 1455 1455 1455 1455 1455 1455 1456 1456 1457 1458 1458 1459 1459 1460 1460 1460 1460 1461 1461 1461 1462 1462 1462 1462 1463 1463 1464 1464 1464 1465 1465 1465 1465 1465 1466 1466 1466 1466 1466 1467 1467 1468 1468 1469 1469 1469 1470 1470 1471 1471
1448 1448 1448 1449 1449 1449 1449 1449 1450 1450 1450 1450 1450 1451 1451 1451 1452 1452 1452 1453 1453 1453 1453 1453 1454 1454 1455 1455 1456 1456 1457 1457 1458 1458 1458 1459 1459 1459 1460 1460 1460 1460 1460 1461 1461 1462 1462 1463 1463 1463 1463 1464 1464 1464 1464 1465 1465 1465 1465 1465 1466 1466 1467 1467 1468 1468 1469 1469 1470
1446 1446 1447 1447 1447 1447 1447 1448 1448 1448 1448 1449 1449 1449 1449 1450 1450 1450 1450 1450 1451 1451 1451 1451 1452 1452 1453 1453 1454 1454 1455 1455 1456 1456 1456 1457 1457 1458 1458 1458 1458 1459 1459 1459 1460 1460 1461 1461 1461 1461 1462 1462 1462 1463 1463 1463 1463 1463 1464 1464 1464 1465 1465 1466 1466 1467 1467 1467 1468
1445 1445 1445 1445 1445 1445 1446 1446 1446 1446 1447 1447 1447 1447 1448 1448 1448 1448 1449 1449 1449 1449 1450 1450 1450 1450 1451 1451 1452 1452 1453 1453 1454 1454 1455 1455 1455 1456 1456 1456 1457 1457 1457 1458 1458 1459 1459 1460 1460 1460 1460 1460 1460 1460 1461 1461 1461 1462 1462 1462 1462 1463 1463 1464 1465 1465 1465 1466 1466
1444 1443 1444 1444 1444 1444 1444 1444 1445 1445 1445 1445 1445 1446 1446 1446 1446 1446 1447 1447 1447 1447 1448 1448 1448 1449 1449 1450 1450 1450 1451 1451 1452 1452 1453 1453 1454 1454 1454 1455 1455 1455 1456 1456 1457 1457 1457 1458 1458 1458 1458 1458 1459 1459 1459 1459 1460 1460 1460 1460 1460 1461 1461 1462 1463 1463 1464 1464 1464
1442 1442 1442 1442 1442 1442 1442 1443 1443 1443 1443 1444 1444 1444 1444 1445 1445 1445 1445 1445 1445 1445 1446 1446 1446 1447 1447 1448 1448 1449 1449 1450 1450 1450 1451 1451 1452 1452 1453 1453 1454 1454 1455 1455 1455 1456 1456 1456 1456 1457 1457 1457 1457 1457 1457 1458 1458 1458 1458 1458 1459 1459 1460 1460 1461 1461 1462 1462 1463
1442 1441 1441 1441 1441 1441 1441 1441 1441 1441 1442 1442 1442 1442 1443 1443 1443 1443 1443 1443 1444 1444 1444 1445 1445 1445 1446 1446 1447 1447 1448 1448 1448 1449 1449 1450 1450 1450 1451 1451 1452 1452 1453 1454 1454 1454 1455 1455 1455 1455 1455 1456 1456 1456 1456 1456 1456 1456 1456 1456 1457 1457 1458 1459 1459 1460 1460 1460 1461
1441 1440 1440 1440 1440 1440 1440 1440 1440 1440 1440 1440 1440 1441 1441 1441 1441 1441 1442 1442 1442 1442 1443 1443 1444 1444 1444 1445 1445 1446 1446 1446 1447 1447 1448 1448 1449 1449 1450 1450 1450 1451 1451 1452 1452 1452 1453 1453 1453 1453 1454 1454 1454 1454 1454 1454 1455 1455 1455 1455 1455 1455 1456 1457 1457 1458 1458 1459 1459
1440 1440 1439 1439 1439 1439 1439 1439 1439 1439 1439 1439 1439 1439 1440 1440 1440 1440 1440 1440 1441 1441 1441 1442 1442 1443 1443 1444 1444 1444 1445 1445 1445 1446 1446 1447 1447 1448 1448 1449 1449 1450 1450 1450 1450 1451 1451 1451 1451 1452 1452 1452 1452 1453 1453 1453 1453 1453 1453 1453 1453 1454 1454 1455 1455 1456 1457 1457 1458
1439 1439 1439 1438 1438 1438 1438 1437 1437 1437 1438 1438 1438 1438 1438 1438 1439 1439 1439 1440 1440 1440 1440 1440 1441 1441 1442 1442 1443 1443 1444 1444 1444 1445 1445 1446 1446 1447 1447 1447 1448 1448 1449 1449 1449 1449 1450 1450 1450 1450 1450 1450 1451 1451 1451 1451 1451 1452 1452 1452 1452 1452 1452 1453 1454 1454 1455 1455 1456
1438 1438 1438 1437 1437 1437 1436 1436 1436 1436 1436 1436 1437 1437 1437 1437 1438 1438 1438 1439 1439 1439 1439 1440 1440 1440 1441 1441 1441 1442 1442 1443 1443 1444 1444 1445 1445 1445 1446 1446 1447 1447 1447 1448 1448 1448 1448 1448 1448 1448 1448 1449 1449 1449 1450 1450 1450 1450 1450 1450 1450 1450 1450 1451 1452 1452 1453 1454 1454
1438 1437 1437 1436 1436 1436 1436 1435 1435 1435 1435 1435 1436 1436 1436 1436 1437 1437 1437 1438 1438 1438 1438 1439 1439 1439 1440 1440 1440 1441 1441 1442 1442 1443 1443 1444 1444 1445 1445 1445 1445 1446 1446 1446 1446 1447 1447 1447 1447 1447 1446 1446 1447 1447 1448 1448 1449 1449 1448 1448 1448 1449 1449 1449 1450 1451 1451 1452 1453
1437 1436 1436 1436 1435 1435 1435 1435 1435 1435 1435 1435 1435 1435 1435 1436 1436 1436 1436 1437 1437 1437 1437 1438 1438 1438 1439 1439 1440 1440 1440 1441 1441 1442 1442 1443 1443 1443 1444 1444 1445 1445 1445 1445 1445 1445 1445 1445 1445 1445 1445 1445 1445 1445 1446 1447 1447 1447 1447 1447 1447 1447 1447 1448 1449 1449 1450 1450 1451
1436 1436 1435 1435 1435 1435 1434 1434 1434 1434 1434 1434 1434 1435 1435 1435 1435 1435 1435 1436 1436 1436 1436 1437 1437 1437 1438 1438 1439 1439 1440 1440 1440 1441 1441 1442 1442 1442 1443 1443 1443 1444 1443 1443 1444 1444 1444 1444 1444 1444 1444 1443 1443 1443 1444 1445 1445 1445 1445 1445 1445 1445 1446 1446 1447 1447 1448 1449 1449
1435 1435 1435 1435 1434 1434 1434 1434 1434 1433 1433 1433 1434 1434 1434 1434 1434 1435 1435 1435 1435 1435 1436 1436 1436 1437 1437 1438 1438 1438 1439 1439 1440 1440 1440 1440 1440 1441 1441 1442 1442 1442 1442 1442 1442 1442 1442 1442 1443 1442 1442 1442 1442 1442 1442 1443 1443 1443 1444 1444 1444 1444 1444 1444 1445 1445 1446 1447 1447
1435 1435 1434 1434 1434 1434 1433 1433 1433 1433 1433 1433 1433 1433 1433 1433 1434 1434 1434 1434 1434 1435 1435 1435 1435 1436 1436 1437 1437 1437 1438 1438 1439 1439 1439 1440 1440 1440 1441 1441 1441 1441 1441 1441 1441 1440 1440 1441 1441 1441 1441 1440 1440 1440 1440 1440 1441 1441 1442 1442 1442 1442 1442 1443 1443 1444 1445 1445 1446
1435 1434 1434 1434 1433 1433 1433 1433 1433 1433 1433 1432 1432 1432 1432 1433 1433 1433 1433 1433 1434 1434 1434 1435 1435 1435 1436 1436 1436 1437 1437 1437 1438 1438 1438 1439 1439 1439 1440 1440 1440 1440 1440 1440 1440 1440 1439 1440 1440 1439 1439 1439 1439 1439 1439 1439 1439 1440 1440 1440 1440 1440 1440 1441 1441 1442 1443 1444 1444
1435 1434 1434 1433 1433 1433 1433 1433 1433 1432 1432 1432 1432 1432 1432 1432 1432 1432 1432 1433 1433 1433 1434 1434 1435 1435 1435 1435 1436 1436 1436 1437 1437 1437 1437 1438 1438 1438 1439 1439 1439 1439 1439 1439 1438 1438 1438 1438 1438 1438 1438 1437 1437 1437 1437 1437 1438 1438 1438 1439 1439 1439 1439 1440 1440 1441 1441 1442 1443
1434 1434 1434 1433 1433 1433 1433 1432 1432 1432 1432 1432 1432 1432 1432 1432 1432 1432 1432 1432 1432 1433 1433 1433 1434 1434 1434 1435 1435 1435 1435 1436 1436 1436 1436 1437 1437 1437 1437 1437 1437 1437 1437 1437 1437 1437 1437 1437 1437 1437 1436 1436 1436 1436 1436 1436 1436 1436 1437 1437 1437 1438 1438 1438 1439 1440 1440 1441 1441